Location: B�retswil
(47.3376°N, 8.8534°E)
Time: 03:57:24
(UTC+00:00)

USA 186 - Pass Details

Date: 03 March 2021
Orbit: 261 x 429 km, 96.9° (Epoch: 15 April)

Event Time Altitude Azimuth Distance (km) Brightness Sun altitude
Exits shadow 18:28:20 19° 36° (NE) 775 2.8 -13.6°
Drops below altitude 10° 18:29:33 10° 13° (NNE) 1,171 3.9 -13.8°
Sets 18:31:38 0° 359° (N) 2,035 5.3 -14.1°
